Regional Weather Roundup
Issued by NWS

Home | Current Version | Previous Version | Graphics & Text | Print | Product List | Glossary Off
Versions: 1 2 3 4 5 6 7 8 9 10 11 12 13 14 15 16 17 18 19 20 21 22 23 24 25 26 27 28 29 30 31 32 33 34 35 36 37 38 39 40 41 42 43 44 45 46 47 48 49 50

070
ASUS45 KBOU 231207
RWRCO

WEATHER ROUNDUP FOR COLORADO
NATIONAL WEATHER SERVICE DENVER/BOULDER CO
600 AM MDT MON OCT 23 2017

NOTE: "FAIR" INDICATES FEW OR NO CLOUDS BELOW 12000 FEET WITH NO
SIGNIFICANT WEATHER AND/OR OBSTRUCTIONS TO VISIBILITY.

COZ001>005-013-030-031-231300-
...NORTHWEST COLORADO...

CITY           SKY/WX    TMP DP  RH WIND       PRES   REMARKS
CRAIG          CLOUDY    45  29  53 NW3       30.45R
HAYDEN         MOCLDY    43  29  57 W5        30.46R
MEEKER         MOCLDY    38  31  76 NW3       30.47R
RABBIT EARS PA PTSUNNY   32  27  80 W20G30    30.47R WCI  20
STEAMBOAT SPGS CLOUDY    47  27  45 W5        30.45R
WALDEN         NOT AVBL
$$

COZ006>008-011-231300-
...WEST CENTRAL VALLEYS...

CITY           SKY/WX    TMP DP  RH WIND       PRES   REMARKS
GRAND JUNCTION FAIR      40  25  55 S5        30.45R
MONTROSE       FAIR      33  24  69 W5        30.49R WCI  29
EAGLE          CLOUDY    40  28  62 E6        30.48R
RIFLE          FAIR      36  30  79 CALM      30.47S
DELTA          FAIR      39  23  53 CALM      30.47R
NUCLA          FAIR      36  19  51 CALM      30.51R
$$

COZ017>023-064>068-231300-
...SOUTHWEST COLORADO...

CITY           SKY/WX    TMP DP  RH WIND       PRES   REMARKS
DURANGO        FAIR      28  19  69 NE3       30.42R
CORTEZ         FAIR      31  21  66 NE7       30.42F WCI  24
PAGOSA SPRINGS FAIR      31  19  62 CALM      30.46S
TELLURIDE      FAIR      38  20  48 CALM      30.58S
WOLF CREEK PAS FAIR      36  21  55 W5        30.66R
$$

COZ009-010-012-014-032>034-037-058>063-231300-
...CENTRAL COLORADO...

CITY           SKY/WX    TMP DP  RH WIND       PRES   REMARKS
ASPEN          CLOUDY    37  30  75 S6        30.50S
BUENA VISTA    FAIR      49  24  37 SW21G29   30.37F
COPPER MTN     CLOUDY    34  27  75 MISG      30.59S
BERTHOUD PASS  CLOUDY    27  16  63 NW53G59   30.47R WCI   6
COTTONWOOD PAS FAIR      46  28  49 SW38G64   30.41F
GUNNISON       FAIR      25  20  81 S7        30.51R WCI  17
KREMMLING      CLOUDY    50  27  40 CALM      30.46R
LEADVILLE      CLOUDY    38  21  50 NW9       30.52R
MONARCH PASS   FAIR      28  21  74 W36       30.65R WCI  12
SALIDA         FAIR      47  24  39 CALM      30.45R
SUNLIGHT       CLOUDY    32  21  64 W9        30.62R WCI  24
WILKERSON PASS FAIR      34  23  64 NW9       30.49F WCI  26
$$

COZ069>075-231300-
...SAN LUIS VALLEY/SANGRE DE CRISTO MOUNTAINS...

CITY           SKY/WX    TMP DP  RH WIND       PRES   REMARKS
ALAMOSA        FAIR      24  18  77 S7        30.43R WCI  16
DEL NORTE      FAIR      31  20  63 W14       30.46R WCI  21
LA VETA PASS   FAIR      36  19  51 SW22G36   30.60R
SAGUACHE       FAIR      36  23  60 N3        30.44R
$$

COZ035-036-038>040-231300-
...NORTHERN COLORADO FRONT RANGE...

CITY           SKY/WX    TMP DP  RH WIND       PRES   REMARKS
DENVER INTL AP MOCLDY    51  27  39 E7        30.25R
DMNS CITY PARK   N/A     63  25  24 N12G35    30.25R
AURORA         MOCLDY    55  28  36 NE8       30.27R
FRONT RANGE AP FAIR      52  30  43 E5        30.27R
ERIE MUNI ARPT FAIR      62  26  25 NW9G17    30.29R
BOULDER MUN AP FAIR      61  28  29 NW17G32   30.23R
CENTENNIAL     MOCLDY    55  27  34 NW13      30.25R
BROOMFIELD     MOCLDY    59  28  31 NW9       30.26R
FORT COLLINS   FAIR      62  29  28 N22G35    30.24R
LONGMONT       MOCLDY    58  30  33 SE3       30.25R
$$

COZ041-046-047-076>085-087-088-231300-
...PIKES PEAK/PALMER DIVIDE AND SOUTHERN FOOTHILLS...

CITY           SKY/WX    TMP DP  RH WIND       PRES   REMARKS
COLO. SPRINGS  MOCLDY    51  28  41 N6        30.28R
A. F. ACADEMY  FAIR      49  26  40 N7        30.28R
SCHRIEVER AFB  FAIR      50  26  39 N6        30.28R
CHEYENNE MTN   FAIR      55  24  29 NW3       30.26R
ELLICOTT         N/A    N/A N/A N/A CALM      30.26R
FALCON         FAIR      47  24  41 W5        30.31R
FORT CARSON    FAIR      52  27  37 SW7       30.25R
LIMON          FAIR      40  30  67 N8        30.25R
MONUMENT HILL  FAIR      39  28  65 W5        30.32R
CANON CITY     CLEAR     50  28  43 SW7       30.26R
WALSENBURG     NOT AVBL
TRINIDAD       FAIR      50  25  37 W10       30.26R
$$

COZ042>045-048>051-090-091-231300-
...NORTHEAST COLORADO...

CITY           SKY/WX    TMP DP  RH WIND       PRES   REMARKS
GREELEY ARPT   FAIR      45  34  65 N26G35    30.28R
AKRON          FAIR      43  31  62 N26G38    30.26R
BURLINGTON     FAIR      52  34  50 N18G37    30.21R
WRAY           NOT AVBL
YUMA           NOT AVBL
STERLING       FAIR      45  34  65 N16G28    30.27R
HOLYOKE        FAIR      46  34  61 N15G24    30.24R
FORT MORGAN    FAIR      44  31  61 N29G37    30.28R
$$

COZ086-089-092>099-231300-
...SOUTHEAST COLORADO...

CITY           SKY/WX    TMP DP  RH WIND       PRES   REMARKS
PUEBLO         FAIR      47  26  44 CALM      30.22R
LA JUNTA       FAIR      44  32  62 W10       30.18R
LAMAR          FAIR      34  29  82 SW8       30.17R WCI  27
SPRINGFIELD      N/A     47  28  47 W10       30.16R
$$




USA.gov is the U.S. government's official web portal to all federal, state and local government web resources and services.